Regional Weather Roundup
Issued by NWS Charleston, WV

Home | Current Version | Previous Version | Graphics & Text | Print | Product List | Glossary On
Versions: 1 2 3 4 5 6 7 8 9 10 11 12 13 14 15 16 17 18 19 20 21 22 23 24 25 26 27 28 29 30 31 32 33 34 35 36 37 38 39 40 41 42 43 44 45 46 47 48 49 50
970
ASUS41 KRLX 260810
RWRRLX
West Virginia Regional Weather Roundup
National Weather Service Charleston WV
400 AM EDT TUE SEP 26 2017

Note: "fair" indicates few or no clouds below 12,000 feet with no
significant weather and/or obstructions to visibility.

WVZ003-260900-
Northern Panhandle of West Virginia

CITY           SKY/WX    TMP DP  RH WIND       PRES   REMARKS
WHEELING       PTCLDY    66  63  90 CALM      30.04S
$$

WVZ009-260900-
Northwest West Virginia

CITY           SKY/WX    TMP DP  RH WIND       PRES   REMARKS
PARKERSBURG    PTCLDY    63  61  93 CALM      30.04S
$$

WVZ006-260900-
Western West Virginia

CITY           SKY/WX    TMP DP  RH WIND       PRES   REMARKS
HUNTINGTON     CLEAR     64  62  93 CALM      30.00F FOG
$$

WVZ015-260900-
West Central West Virginia

CITY           SKY/WX    TMP DP  RH WIND       PRES   REMARKS
CHARLESTON     PTCLDY    62  61  96 CALM      30.01S
$$

WVZ022-031-260900-
North Central West Virginia

CITY           SKY/WX    TMP DP  RH WIND       PRES   REMARKS
CLARKSBURG     PTCLDY    63  62  97 CALM      30.04S FOG
MORGANTOWN     PTCLDY    67  63  87 CALM      30.05S FOG
$$

WVZ025-035-042-045-260900-
Southern West Virginia

CITY           SKY/WX    TMP DP  RH WIND       PRES   REMARKS
BECKLEY        CLEAR     58  57  97 CALM      30.09R
LOGAN            N/A     64  63  94 CALM      30.04R
BLUEFIELD      CLEAR     60  58  92 SE3       30.10S
LEWISBURG      PTCLDY    59  58  97 CALM      30.08F
$$

WVZ047-260900-
Northern Mountains of West Virginia

CITY           SKY/WX    TMP DP  RH WIND       PRES   REMARKS
ELKINS         FOG       59  58  96 CALM      30.09S VSB 1/4
$$

WVZ052-260900-
Eastern Panhandle of West Virginia

CITY           SKY/WX    TMP DP  RH WIND       PRES   REMARKS
MARTINSBURG    CLEAR     66  64  93 CALM      30.01S FOG
PETERSBURG     FOG       64  64 100 CALM      30.05R VSB 1/2
$$




USA.gov is the U.S. government's official web portal to all federal, state and local government web resources and services.